Ikan Parang — 9V9099 — position and weather

sailwx.info

Track history (hours):
 
Tides and Currents Weather Stations Pressure Air Temp Water Temp Dewpoint Dewpoint Depression Visibility Wind Speed Wind Dir Waves Ship Positions

Ikan Parang

Last reported at 2016-Jul-24 10:30 UTC. Time now 2016-Jul-24 20:24 UTC.
Position N 31°46' E 120°57'.

Length 183 m; draft 11 m.

Type: Cargo ship. MMSI: 566238000.

Date/timePositionNaut miles runAvg speedWind from/ knotsBaromVisibWave heightAir tempDewpointWater temp
2016-Jul-24 10:30N 31°46' E 120°57'  
2016-Jul-20 17:14N 31°46' E 120°57'0 0.0
2016-Jul-19 15:14N 31°46' E 120°57'4 6.3
2016-Jul-19 14:33N 31°46' E 121°02'8 8.4
2016-Jul-19 13:33N 31°41' E 121°10'8 8.4
2016-Jul-19 12:33N 31°36' E 121°18'2 1.6
2016-Jul-19 11:29N 31°36' E 121°20'0 0.1
2016-Jul-19 10:32N 31°36' E 121°20'0 0.0
2016-Jul-19 09:32N 31°36' E 121°20'0 0.0
2016-Jul-19 08:32N 31°36' E 121°20'0 0.1
2016-Jul-19 07:29N 31°36' E 121°20'0 0.1
2016-Jul-19 04:29N 31°36' E 121°19'0 0.1
2016-Jul-19 03:32N 31°36' E 121°20'0 0.2
2016-Jul-19 02:32N 31°36' E 121°20'0 0.2
2016-Jul-19 01:29N 31°36' E 121°20'0 0.1
2016-Jul-19 00:29N 31°36' E 121°20'0 0.1
2016-Jul-18 22:29N 31°36' E 121°20'0 0.0
2016-Jul-18 19:20N 31°36' E 121°20'0 0.1
2016-Jul-18 18:32N 31°36' E 121°20'0 0.2
2016-Jul-18 17:26N 31°36' E 121°20'0 0.0
2016-Jul-18 16:32N 31°36' E 121°20'0 0.0
2016-Jul-18 15:32N 31°36' E 121°20'0 0.0
2016-Jul-18 14:32N 31°36' E 121°20'0 0.2
2016-Jul-18 13:23N 31°36' E 121°20'0 0.0
2016-Jul-18 12:32N 31°36' E 121°20'0 0.0
2016-Jul-18 11:32N 31°36' E 121°20'0 0.0
2016-Jul-18 10:32N 31°36' E 121°20'0 0.0
2016-Jul-18 09:32N 31°36' E 121°20'0 0.0
2016-Jul-18 08:32N 31°36' E 121°20'0 0.0
2016-Jul-18 07:32N 31°36' E 121°20'0 0.1
2016-Jul-18 06:33N 31°36' E 121°20'6 6.2
2016-Jul-18 05:33N 31°31' E 121°24'9 8.7
2016-Jul-18 04:33N 31°25' E 121°32'10 9.7
2016-Jul-18 03:33N 31°20' E 121°42'  
Track history (hours):
 
Tides and Currents Weather Stations Pressure Air Temp Water Temp Dewpoint Dewpoint Depression Visibility Wind Speed Wind Dir Waves Ship Positions

Ikan Parang

Last reported at 2016-Jul-24 10:30 UTC. Time now 2016-Jul-24 20:24 UTC.
Position N 31°46' E 120°57'.

Length 183 m; draft 11 m.

Type: Cargo ship. MMSI: 566238000.

Date/timePositionNaut miles runAvg speedWind from/ knotsBaromVisibWave heightAir tempDewpointWater temp
2016-Jul-24 10:30N 31°46' E 120°57'  
2016-Jul-20 17:14N 31°46' E 120°57'0 0.0
2016-Jul-19 15:14N 31°46' E 120°57'4 6.3
2016-Jul-19 14:33N 31°46' E 121°02'8 8.4
2016-Jul-19 13:33N 31°41' E 121°10'8 8.4
2016-Jul-19 12:33N 31°36' E 121°18'2 1.6
2016-Jul-19 11:29N 31°36' E 121°20'0 0.1
2016-Jul-19 10:32N 31°36' E 121°20'0 0.0
2016-Jul-19 09:32N 31°36' E 121°20'0 0.0
2016-Jul-19 08:32N 31°36' E 121°20'0 0.1
2016-Jul-19 07:29N 31°36' E 121°20'0 0.1
2016-Jul-19 04:29N 31°36' E 121°19'0 0.1
2016-Jul-19 03:32N 31°36' E 121°20'0 0.2
2016-Jul-19 02:32N 31°36' E 121°20'0 0.2
2016-Jul-19 01:29N 31°36' E 121°20'0 0.1
2016-Jul-19 00:29N 31°36' E 121°20'0 0.1
2016-Jul-18 22:29N 31°36' E 121°20'0 0.0
2016-Jul-18 19:20N 31°36' E 121°20'0 0.1
2016-Jul-18 18:32N 31°36' E 121°20'0 0.2
2016-Jul-18 17:26N 31°36' E 121°20'0 0.0
2016-Jul-18 16:32N 31°36' E 121°20'0 0.0
2016-Jul-18 15:32N 31°36' E 121°20'0 0.0
2016-Jul-18 14:32N 31°36' E 121°20'0 0.2
2016-Jul-18 13:23N 31°36' E 121°20'0 0.0
2016-Jul-18 12:32N 31°36' E 121°20'0 0.0
2016-Jul-18 11:32N 31°36' E 121°20'0 0.0
2016-Jul-18 10:32N 31°36' E 121°20'0 0.0
2016-Jul-18 09:32N 31°36' E 121°20'0 0.0
2016-Jul-18 08:32N 31°36' E 121°20'0 0.0
2016-Jul-18 07:32N 31°36' E 121°20'0 0.1
2016-Jul-18 06:33N 31°36' E 121°20'6 6.2
2016-Jul-18 05:33N 31°31' E 121°24'9 8.7
2016-Jul-18 04:33N 31°25' E 121°32'10 9.7
2016-Jul-18 03:33N 31°20' E 121°42'  

Dump ship's entire track history